Weather in Dus-Dag

Russia / Tyva Republic     50°48′48″N   92°40′53″E
temp.,
°C
wind,
m/s
gust,
m/s
humid.,
%
clouds,
%
prec.,
mm/h
press.,
hPa
HPBL,
m
5 march, fri
fri501:00−16nne22770 0.0 103120
04:00−17ne22827 0.0 103020
07:00−17nne228534 0.0 103020
10:00−13ne118493 0.0 102961
13:00−12ssw118196 0.0 1027264
16:00−11nw117998 0.0 1025364
19:00−13nnw238399 0.0 102834
22:00−17nne018777 0.0 103120
6 march, sat
sat601:00−17ne228138 0.0 103320
04:00−18nne118268 0.0 103420
07:00−18nne117444 0.0 103520
10:00−13e117447 0.0 103339
13:00−11s118166 0.0 1030151
16:00−11s118777 0.0 1027169
19:00−15n228459 0.0 102820
22:00−15n227024 0.0 102720
7 march, sun
sun701:00−16nne227542 0.0 102720
04:00−17n128127 0.0 102620
07:00−18n228020 0.0 102720
10:00−14ese117859 0.0 102786
13:00−12s118076 0.0 1026234
16:00−12ssw119064 0.0 1025112
19:00−16n118876 0.0 102720
22:00−16ne117251 0.0 102920
8 march, mon
mon801:00−17nne117272 0.0 103020
04:00−19ne017775 0.0 103020
07:00−19nne117540 0.0 103220
10:00−14se11740 0.0 103034
13:00−12s11853 0.0 1028136
16:00−11s119317 0.0 102694
19:00−15n129014 0.0 102620
22:00−16nne12770 0.0 102620
9 march, tue
tue901:00−16nne11760 0.0 102620
04:00−16ene017859 0.0 102620
07:00−16se118279 0.0 102920
10:00−14sse1189100 0.0 102963
13:00−12ese118375 0.0 1028164
16:00−10s118934 0.0 102797
19:00−15ne119133 0.0 102921
22:00−15ne11830 0.0 102920